GW3945 Weather Reports


Display with metric or nautical units.
time (UTC)temp
F
wind
direction
speed
MPH
gust
MPH
rain 1hr
in
rain 24hr
in
rain mn
in
humidity
%
barometer
mb
20260903033348 78 226 0.0 0.0 0.00 0.00 0.00 88 1015.4
20260903032848 78 226 0.0 0.0 0.00 0.00 0.00 89 1015.6
20260903032344 78 223 0.0 0.0 0.00 0.00 0.00 89 1015.5
20260903031839 79 223 0.0 0.0 0.00 0.00 0.00 89 1015.4
20260903031338 79 223 0.0 0.0 0.00 0.00 0.00 88 1015.5
20260903030834 79 223 0.0 0.0 0.00 0.00 0.00 88 1015.6
20260903030330 79 223 0.0 0.0 0.00 0.00 0.00 87 1015.5
20260903025826 79 229 0.0 0.0 0.00 0.00 0.00 87 1015.5
20260903025321 79 226 0.0 0.0 0.00 0.00 0.00 88 1015.7
20260903024820 79 226 0.0 0.0 0.00 0.00 0.00 88 1015.6
20260903024320 79 226 0.0 0.0 0.00 0.00 0.00 89 1015.6
20260903023816 79 226 0.0 0.0 0.00 0.00 0.00 89 1015.6
20260903023311 79 226 0.0 0.0 0.00 0.00 0.00 87 1015.6
20260903022806 79 224 0.0 0.0 0.00 0.00 0.00 89 1015.5
20260903022306 79 224 0.0 0.0 0.00 0.00 0.00 90 1015.5
20260903021759 80 224 0.0 0.0 0.00 0.00 0.00 89 1015.5
20260903021255 80 222 0.0 0.0 0.00 0.00 0.00 89 1015.6
20260903020754 80 220 0.0 0.0 0.00 0.00 0.00 88 1015.4
20260903020249 80 220 0.0 0.0 0.00 0.00 0.00 89 1015.5
20260903015744 81 220 0.0 0.0 0.00 0.00 0.00 88 1015.5
20260903015239 81 220 0.0 0.0 0.00 0.00 0.00 86 1015.4
20260903014734 81 220 0.0 0.0 0.00 0.00 0.00 86 1015.5
20260903014229 82 220 0.0 0.0 0.00 0.00 0.00 85 1015.3
20260903013724 81 220 0.0 0.0 0.00 0.00 0.00 83 1015.3
20260903013223 81 219 0.0 0.0 0.00 0.00 0.00 86 1015.3
20260903012722 81 219 0.0 0.0 0.00 0.00 0.00 86 1015.3
20260903012221 82 219 0.0 0.0 0.00 0.00 0.00 86 1015.2
20260903011716 82 219 0.0 0.0 0.00 0.00 0.00 86 1015.2
20260903011216 82 219 0.0 0.0 0.00 0.00 0.00 86 1015.2
20260903010712 82 219 0.0 0.0 0.00 0.00 0.00 84 1014.9
20260903010211 83 219 0.0 0.0 0.00 0.00 0.00 84 1014.7
20260903005710 83 219 0.0 0.0 0.00 0.00 0.00 83 1015.0
20260903005205 83 219 0.0 0.0 0.00 0.00 0.00 83 1015.0
20260903004701 84 219 0.0 0.0 0.00 0.00 0.00 82 1015.1
20260903004155 84 219 0.0 0.0 0.00 0.00 0.00 81 1014.9
20260903003651 84 233 0.0 0.0 0.00 0.00 0.00 79 1015.1
20260903003147 84 220 0.0 0.0 0.00 0.00 0.00 79 1014.9
20260903002642 85 220 0.0 0.0 0.00 0.00 0.00 80 1015.1
20260903002136 85 219 0.0 0.0 0.00 0.00 0.00 79 1015.1
20260903001631 86 219 0.0 0.0 0.00 0.00 0.00 78 1015.0
20260903001125 86 219 0.0 0.0 0.00 0.00 0.00 78 1015.1
20260903000621 87 219 0.0 0.0 0.00 0.00 0.00 78 1015.1
20260903000120 87 219 0.0 0.0 0.00 0.00 0.00 77 1015.1
20260902235619 87 219 0.0 0.0 0.00 0.00 0.00 75 1015.0
20260902235114 88 219 0.0 0.0 0.00 0.00 0.00 73 1015.3
20260902234608 88 219 0.0 0.0 0.00 0.00 0.00 73 1015.0
20260902234107 88 219 0.0 0.0 0.00 0.00 0.00 72 1015.3
20260902233602 89 219 0.0 0.0 0.00 0.00 0.00 72 1015.3
20260902233056 89 219 0.0 0.0 0.00 0.00 0.00 68 1015.1
20260902232555 90 219 0.0 0.0 0.00 0.00 0.00 67 1015.0
20260902232050 90 219 0.0 0.0 0.00 0.00 0.00 65 1015.2
20260902231545 90 219 0.0 0.0 0.00 0.00 0.00 63 1015.2
20260902231044 91 219 0.0 0.0 0.00 0.00 0.00 63 1015.1
20260902230539 91 219 0.0 0.0 0.00 0.00 0.00 64 1015.1
20260902230038 91 219 0.0 0.0 0.00 0.00 0.00 67 1015.2
20260902225534 93 220 0.0 0.0 0.00 0.00 0.00 60 1015.2
20260902225033 93 220 0.0 0.0 0.00 0.00 0.00 57 1015.2
20260902224532 93 220 0.0 0.0 0.00 0.00 0.00 55 1015.2
20260902224028 94 219 0.0 0.0 0.00 0.00 0.00 54 1015.2
20260902223524 94 219 0.0 0.0 0.00 0.00 0.00 53 1015.1
20260902223023 94 219 0.0 0.0 0.00 0.00 0.00 52 1015.2
20260902222522 94 220 0.0 0.0 0.00 0.00 0.00 51 1015.2
20260902222020 94 220 0.0 0.0 0.00 0.00 0.00 50 1015.1
20260902221515 95 224 0.0 0.0 0.00 0.00 0.00 48 1015.5
20260902221010 95 221 0.0 0.0 0.00 0.00 0.00 49 1015.4
20260902220505 95 224 0.0 0.0 0.00 0.00 0.00 49 1015.4
20260902215959 96 221 0.0 0.0 0.00 0.00 0.00 51 1015.4
20260902215456 95 222 0.0 0.0 0.00 0.00 0.00 50 1015.5
20260902214952 95 215 0.0 0.0 0.00 0.00 0.00 49 1015.4
20260902214450 96 216 0.0 0.0 0.00 0.00 0.00 48 1015.5
20260902213944 96 216 0.0 0.0 0.00 0.00 0.00 48 1015.4
20260902213441 97 227 0.0 0.0 0.00 0.00 0.00 46 1015.4
20260902212939 97 225 0.0 0.0 0.00 0.00 0.00 51 1015.2
20260902212436 97 225 0.0 0.0 0.00 0.00 0.00 50 1015.6
20260902211932 97 225 0.0 0.0 0.00 0.00 0.00 48 1015.5
20260902211427 96 225 0.0 0.0 0.00 0.00 0.00 48 1015.6
20260902210923 95 226 0.0 0.0 0.00 0.00 0.00 50 1015.6
20260902210422 95 227 0.0 0.0 0.00 0.00 0.00 49 1015.5
20260902205915 95 214 0.0 0.0 0.00 0.00 0.00 50 1015.5
20260902205410 95 215 0.0 0.0 0.00 0.00 0.00 51 1015.6
20260902204906 94 225 0.0 0.0 0.00 0.00 0.00 51 1015.5
20260902204405 94 214 0.0 0.0 0.00 0.00 0.00 52 1015.6
20260902203901 93 271 0.0 1.0 0.00 0.00 0.00 50 1015.7
20260902203356 93 220 0.0 0.0 0.00 0.00 0.00 52 1015.8
20260902202850 94 209 0.0 0.0 0.00 0.00 0.00 52 1015.9
20260902202346 93 224 0.0 0.0 0.00 0.00 0.00 51 1016.0
20260902201843 92 204 0.0 0.0 0.00 0.00 0.00 52 1016.1
20260902201342 92 204 0.0 0.0 0.00 0.00 0.00 52 1016.0
20260902200837 93 204 0.0 0.0 0.00 0.00 0.00 53 1016.1
20260902200332 92 204 0.0 0.0 0.00 0.00 0.00 51 1016.2
20260902195828 93 211 0.0 0.0 0.00 0.00 0.00 53 1016.3
20260902195327 93 220 0.0 0.0 0.00 0.00 0.00 57 1016.4
20260902194822 92 205 0.0 0.0 0.00 0.00 0.00 53 1016.3
20260902194317 92 204 0.0 0.0 0.00 0.00 0.00 53 1016.4
20260902193812 92 204 0.0 0.0 0.00 0.00 0.00 54 1016.5
20260902193308 93 210 0.0 0.0 0.00 0.00 0.00 55 1016.5
20260902192807 94 222 0.0 1.0 0.00 0.00 0.00 52 1016.4
20260902192307 93 213 0.0 0.0 0.00 0.00 0.00 52 1016.6
20260902191805 92 209 0.0 0.0 0.00 0.00 0.00 54 1016.8
20260902191301 92 208 0.0 0.0 0.00 0.00 0.00 54 1016.9
20260902190756 93 209 0.0 0.0 0.00 0.00 0.00 54 1017.0
20260902190255 92 219 0.0 0.0 0.00 0.00 0.00 53 1016.9
20260902185751 93 206 0.0 0.0 0.00 0.00 0.00 56 1017.0
20260902185246 93 214 0.0 0.0 0.00 0.00 0.00 54 1017.0
20260902184742 93 254 0.0 0.0 0.00 0.00 0.00 56 1017.1
20260902184243 92 211 0.0 0.0 0.00 0.00 0.00 56 1017.0
20260902183738 92 183 0.0 0.0 0.00 0.00 0.00 55 1016.9
20260902183234 92 215 0.0 0.0 0.00 0.00 0.00 56 1017.2
20260902182730 92 219 0.0 0.0 0.00 0.00 0.00 56 1016.9
20260902182227 93 226 0.0 0.0 0.00 0.00 0.00 56 1017.2
20260902181723 93 202 0.0 0.0 0.00 0.00 0.00 55 1017.2
20260902181222 93 228 0.0 0.0 0.00 0.00 0.00 56 1017.2
20260902180717 92 209 0.0 0.0 0.00 0.00 0.00 57 1017.2
20260902180212 92 209 0.0 0.0 0.00 0.00 0.00 58 1017.4
20260902175707 91 258 2.0 2.0 0.00 0.00 0.00 55 1017.3
20260902175203 91 194 0.0 0.0 0.00 0.00 0.00 57 1017.4
20260902174659 92 218 0.0 0.0 0.00 0.00 0.00 58 1017.7
20260902174155 91 220 0.0 0.0 0.00 0.00 0.00 57 1017.5
20260902173650 91 184 0.0 1.0 0.00 0.00 0.00 58 1017.7
20260902173145 91 194 0.0 0.0 0.00 0.00 0.00 58 1017.8
20260902172639 91 197 0.0 0.0 0.00 0.00 0.00 57 1017.7
20260902172138 91 212 0.0 0.0 0.00 0.00 0.00 60 1017.9
20260902171634 91 215 0.0 0.0 0.00 0.00 0.00 59 1017.9
20260902171130 91 205 0.0 0.0 0.00 0.00 0.00 61 1017.8
20260902170626 91 209 0.0 0.0 0.00 0.00 0.00 62 1018.0
20260902170121 91 211 0.0 0.0 0.00 0.00 0.00 62 1018.0
20260902165621 90 220 0.0 0.0 0.00 0.00 0.00 61 1018.2
20260902165115 90 216 0.0 0.0 0.00 0.00 0.00 61 1018.0
20260902164610 89 268 0.0 0.0 0.00 0.00 0.00 60 1018.4
20260902164109 89 245 1.0 1.0 0.00 0.00 0.00 60 1018.4
20260902163605 89 212 0.0 0.0 0.00 0.00 0.00 63 1018.4
20260902163103 89 191 0.0 0.0 0.00 0.00 0.00 64 1018.3
20260902162603 89 197 0.0 0.0 0.00 0.00 0.00 61 1018.5
20260902162057 89 212 0.0 0.0 0.00 0.00 0.00 62 1018.6
20260902161552 89 212 0.0 0.0 0.00 0.00 0.00 64 1018.7
20260902161049 89 214 0.0 0.0 0.00 0.00 0.00 64 1018.8
20260902160544 89 205 0.0 0.0 0.00 0.00 0.00 65 1018.8
20260902160039 89 209 0.0 0.0 0.00 0.00 0.00 62 1018.8
20260902155532 90 212 0.0 0.0 0.00 0.00 0.00 65 1018.8
20260902155031 89 216 0.0 0.0 0.00 0.00 0.00 63 1018.8
20260902154527 89 224 0.0 0.0 0.00 0.00 0.00 62 1018.8
20260902154021 89 220 0.0 0.0 0.00 0.00 0.00 64 1018.6
20260902153520 89 221 0.0 0.0 0.00 0.00 0.00 63 1018.8
20260902153016 89 249 0.0 0.0 0.00 0.00 0.00 60 1018.7
20260902152512 89 229 0.0 0.0 0.00 0.00 0.00 60 1018.9
20260902152007 89 213 0.0 0.0 0.00 0.00 0.00 59 1019.0
20260902151503 88 233 0.0 0.0 0.00 0.00 0.00 60 1018.7
20260902151002 88 236 0.0 0.0 0.00 0.00 0.00 58 1018.8
20260902150458 88 221 0.0 0.0 0.00 0.00 0.00 60 1018.9
20260902145957 88 224 0.0 0.0 0.00 0.00 0.00 60 1018.8
20260902145448 88 242 0.0 0.0 0.00 0.00 0.00 63 1018.9
20260902144947 88 225 0.0 0.0 0.00 0.00 0.00 68 1018.7
20260902144444 87 225 0.0 0.0 0.00 0.00 0.00 70 1018.7
20260902143938 86 222 0.0 0.0 0.00 0.00 0.00 71 1018.8
20260902143434 86 231 0.0 0.0 0.00 0.00 0.00 73 1018.7
20260902142928 85 236 0.0 0.0 0.00 0.00 0.00 76 1018.8
20260902142425 84 236 0.0 0.0 0.00 0.00 0.00 79 1018.6
20260902141920 83 236 0.0 0.0 0.00 0.00 0.00 83 1018.6
20260902141415 83 236 0.0 0.0 0.00 0.00 0.00 85 1018.5
20260902140914 82 236 0.0 0.0 0.00 0.00 0.00 86 1018.6
20260902140410 82 236 0.0 0.0 0.00 0.00 0.00 87 1018.7
20260902135910 81 236 0.0 0.0 0.00 0.00 0.00 88 1018.6
20260902135406 80 236 0.0 0.0 0.00 0.00 0.00 89 1018.7
20260902134904 80 236 0.0 0.0 0.00 0.00 0.00 89 1018.5
20260902134400 80 236 0.0 0.0 0.00 0.00 0.00 89 1018.6
20260902133854 79 236 0.0 0.0 0.00 0.00 0.00 89 1018.6
20260902133349 78 236 0.0 0.0 0.00 0.00 0.00 90 1018.5
20260902132844 78 235 0.0 0.0 0.00 0.00 0.00 91 1018.8
20260902132339 77 235 0.0 0.0 0.00 0.00 0.00 91 1018.7
20260902131835 77 235 0.0 0.0 0.00 0.00 0.00 91 1018.7
20260902131332 77 235 0.0 0.0 0.00 0.00 0.00 91 1018.5
20260902130830 76 235 0.0 0.0 0.00 0.00 0.00 91 1018.5
20260902130326 76 235 0.0 0.0 0.00 0.00 0.00 92 1018.6
20260902125821 75 235 0.0 0.0 0.00 0.00 0.00 92 1018.7
20260902125317 75 235 0.0 0.0 0.00 0.00 0.00 93 1018.5
20260902124813 74 235 0.0 0.0 0.00 0.00 0.00 93 1018.4
20260902124309 74 235 0.0 0.0 0.00 0.00 0.00 93 1018.3
20260902123804 73 236 0.0 0.0 0.00 0.00 0.00 93 1018.5
20260902123300 73 236 0.0 0.0 0.00 0.00 0.00 94 1018.4
20260902122759 73 236 0.0 0.0 0.00 0.00 0.00 94 1018.4
20260902122255 73 236 0.0 0.0 0.00 0.00 0.00 94 1018.4
20260902121755 73 236 0.0 0.0 0.00 0.00 0.00 94 1018.3
20260902121250 73 236 0.0 0.0 0.00 0.00 0.00 94 1018.2
20260902120745 72 237 0.0 0.0 0.00 0.00 0.00 94 1018.0
20260902120241 72 237 0.0 0.0 0.00 0.00 0.00 94 1018.2
20260902115736 72 237 0.0 0.0 0.00 0.00 0.00 94 1018.2
20260902115232 72 237 0.0 0.0 0.00 0.00 0.00 94 1018.4
20260902114728 72 237 0.0 0.0 0.00 0.00 0.00 94 1017.9
20260902114224 72 237 0.0 0.0 0.00 0.00 0.00 95 1018.1
20260902113723 71 237 0.0 0.0 0.00 0.00 0.00 95 1017.9
20260902113219 71 237 0.0 0.0 0.00 0.00 0.00 95 1017.8
20260902112713 72 237 0.0 0.0 0.00 0.00 0.00 95 1017.9
20260902112210 72 237 0.0 0.0 0.00 0.00 0.00 95 1017.8
20260902111705 71 237 0.0 0.0 0.00 0.00 0.00 95 1017.7
20260902111202 71 237 0.0 0.0 0.00 0.00 0.00 94 1017.5
20260902110657 72 237 0.0 0.0 0.00 0.00 0.00 95 1017.4
20260902110153 72 237 0.0 0.0 0.00 0.00 0.00 95 1017.8
20260902105652 72 237 0.0 0.0 0.00 0.00 0.00 95 1017.3
20260902105148 72 237 0.0 0.0 0.00 0.00 0.00 94 1017.5
20260902104643 72 237 0.0 0.0 0.00 0.00 0.00 94 1017.4
20260902104138 72 237 0.0 0.0 0.00 0.00 0.00 94 1017.2
20260902103637 72 237 0.0 0.0 0.00 0.00 0.00 94 1017.3
20260902103133 72 237 0.0 0.0 0.00 0.00 0.00 94 1017.3
20260902102629 71 237 0.0 0.0 0.00 0.00 0.00 95 1017.3
20260902102126 71 237 0.0 0.0 0.00 0.00 0.00 95 1017.3
20260902101621 71 237 0.0 0.0 0.00 0.00 0.00 95 1016.8
20260902101120 71 237 0.0 0.0 0.00 0.00 0.00 94 1017.0
20260902100615 72 237 0.0 0.0 0.00 0.00 0.00 94 1017.0
20260902100110 72 237 0.0 0.0 0.00 0.00 0.00 94 1016.9
20260902095609 72 237 0.0 0.0 0.00 0.00 0.00 94 1017.0
20260902095109 72 237 0.0 0.0 0.00 0.00 0.00 94 1016.9
20260902094604 72 237 0.0 0.0 0.00 0.00 0.00 94 1016.9
20260902094100 72 237 0.0 0.0 0.00 0.00 0.00 94 1017.0
20260902093600 72 237 0.0 0.0 0.00 0.00 0.00 94 1016.9
20260902093054 72 237 0.0 0.0 0.00 0.00 0.00 94 1016.8
20260902092549 72 238 0.0 0.0 0.00 0.00 0.00 93 1016.9
20260902092044 73 236 0.0 0.0 0.00 0.00 0.00 93 1016.7
20260902091534 73 236 0.0 0.0 0.00 0.00 0.00 93 1016.8
20260902091029 73 236 0.0 0.0 0.00 0.00 0.00 93 1016.7
20260902090526 73 236 0.0 0.0 0.00 0.00 0.00 93 1016.7
20260902090025 73 236 0.0 0.0 0.00 0.00 0.00 93 1016.6
20260902085524 73 236 0.0 0.0 0.00 0.00 0.00 93 1016.8
20260902085020 73 236 0.0 0.0 0.00 0.00 0.00 92 1016.7
20260902084516 73 236 0.0 0.0 0.00 0.00 0.00 91 1016.7
20260902084011 73 236 0.0 0.0 0.00 0.00 0.00 91 1016.6
20260902083507 73 236 0.0 0.0 0.00 0.00 0.00 91 1016.6
20260902083001 73 237 0.0 0.0 0.00 0.00 0.00 90 1016.3
20260902082457 72 237 0.0 0.0 0.00 0.00 0.00 92 1016.2
20260902081953 72 237 0.0 0.0 0.00 0.00 0.00 94 1016.3
20260902081450 72 240 0.0 0.0 0.00 0.00 0.00 94 1016.2
20260902080944 72 235 0.0 0.0 0.00 0.00 0.00 94 1016.4
20260902080440 73 235 0.0 0.0 0.00 0.00 0.00 94 1016.4
20260902075939 73 235 0.0 0.0 0.00 0.00 0.00 94 1016.1
20260902075436 73 235 0.0 0.0 0.00 0.00 0.00 94 1016.2
20260902074931 73 235 0.0 0.0 0.00 0.00 0.00 94 1016.3
20260902074426 73 236 0.0 0.0 0.00 0.00 0.00 94 1016.2
20260902073921 73 233 0.0 0.0 0.00 0.00 0.00 94 1016.5
20260902073417 73 233 0.0 0.0 0.00 0.00 0.00 93 1016.4
20260902072913 73 233 0.0 0.0 0.00 0.00 0.00 93 1016.3
20260902072409 73 233 0.0 0.0 0.00 0.00 0.00 93 1016.4
20260902071905 73 233 0.0 0.0 0.00 0.00 0.00 93 1016.3
20260902071404 74 233 0.0 0.0 0.00 0.00 0.00 92 1016.3
20260902070901 74 233 0.0 0.0 0.00 0.00 0.00 93 1016.3
20260902070356 74 233 0.0 0.0 0.00 0.00 0.00 93 1016.2
20260902065854 74 233 0.0 0.0 0.00 0.00 0.00 92 1016.3
20260902065350 74 233 0.0 0.0 0.00 0.00 0.00 92 1016.3
20260902064845 74 233 0.0 0.0 0.00 0.00 0.00 92 1016.2
20260902064341 74 233 0.0 0.0 0.00 0.00 0.00 92 1016.3
20260902063837 73 233 0.0 0.0 0.00 0.00 0.00 91 1016.2
20260902063336 74 233 0.0 0.0 0.00 0.00 0.00 91 1016.3
20260902062831 74 233 0.0 0.0 0.00 0.00 0.00 92 1016.4
20260902062325 74 233 0.0 0.0 0.00 0.00 0.00 92 1016.1
20260902061825 75 233 0.0 0.0 0.00 0.00 0.00 91 1016.4
20260902061320 75 233 0.0 0.0 0.00 0.00 0.00 90 1016.4
20260902060817 75 233 0.0 0.0 0.00 0.00 0.00 90 1016.4
20260902060312 75 233 0.0 0.0 0.00 0.00 0.00 89 1016.1
20260902055808 75 235 0.0 0.0 0.00 0.00 0.00 88 1016.4
20260902055306 75 237 0.0 0.0 0.00 0.00 0.00 89 1016.3
20260902054759 75 236 0.0 0.0 0.00 0.00 0.00 89 1016.4
20260902054254 74 234 0.0 0.0 0.00 0.00 0.00 89 1016.4
20260902053750 74 233 0.0 0.0 0.00 0.00 0.00 92 1016.3
20260902053249 74 233 0.0 0.0 0.00 0.00 0.00 92 1016.4
20260902052748 74 232 0.0 0.0 0.00 0.00 0.00 92 1016.6
20260902052244 74 232 0.0 0.0 0.00 0.00 0.00 91 1016.5
20260902051738 75 232 0.0 0.0 0.00 0.00 0.00 92 1016.5
20260902051232 75 232 0.0 0.0 0.00 0.00 0.00 92 1016.4
20260902050727 75 232 0.0 0.0 0.00 0.00 0.00 91 1016.4
20260902050223 75 232 0.0 0.0 0.00 0.00 0.00 90 1016.3
20260902045722 75 232 0.0 0.0 0.00 0.00 0.00 90 1016.4
20260902045219 76 232 0.0 0.0 0.00 0.00 0.00 89 1016.4
20260902044714 76 232 0.0 0.0 0.00 0.00 0.00 89 1016.3
20260902044210 75 232 0.0 0.0 0.00 0.00 0.00 89 1016.3
20260902043704 75 231 0.0 0.0 0.00 0.00 0.00 90 1016.4
20260902043200 75 231 0.0 0.0 0.00 0.00 0.00 90 1016.5
20260902042659 76 231 0.0 0.0 0.00 0.00 0.00 90 1016.3
20260902042154 76 231 0.0 0.0 0.00 0.00 0.00 90 1016.5
20260902041654 76 231 0.0 0.0 0.00 0.00 0.00 90 1016.5
20260902041149 76 231 0.0 0.0 0.00 0.00 0.00 90 1016.6
20260902040648 76 231 0.0 0.0 0.00 0.00 0.00 90 1016.5
20260902040144 76 231 0.0 0.0 0.00 0.00 0.00 91 1016.5
20260902035642 76 231 0.0 0.0 0.00 0.00 0.00 90 1016.5
20260902035137 76 231 0.0 0.0 0.00 0.00 0.00 90 1016.5
20260902034636 76 231 0.0 0.0 0.00 0.00 0.00 90 1016.6
20260902034131 77 231 0.0 0.0 0.00 0.00 0.00 89 1016.7